TimePST,TemperatureF,Dew PointF,Humidity,Sea Level PressureIn,VisibilityMPH,Wind Direction,Wind SpeedMPH,Gust SpeedMPH,PrecipitationIn,Events,Conditions,WindDirDegrees,DateUTC
12:52 AM,45.0,28.0,52,30.20,10.0,NE,9.2,-,N/A,,Clear,50,2013-01-09 08:52:00
1:52 AM,44.1,28.0,53,30.20,10.0,ENE,5.8,-,N/A,,Clear,70,2013-01-09 09:52:00
2:52 AM,39.9,27.0,60,30.20,10.0,East,6.9,-,N/A,,Clear,100,2013-01-09 10:52:00
3:52 AM,39.9,27.0,60,30.17,10.0,ESE,6.9,-,N/A,,Clear,110,2013-01-09 11:52:00
4:52 AM,39.0,27.0,62,30.17,10.0,Calm,Calm,-,N/A,,Clear,0,2013-01-09 12:52:00
6:52 AM,37.9,27.0,65,30.19,10.0,ENE,4.6,-,N/A,,Clear,60,2013-01-09 14:52:00
7:52 AM,42.1,27.0,55,30.19,10.0,Calm,Calm,-,N/A,,Clear,0,2013-01-09 15:52:00
8:52 AM,45.0,28.0,52,30.17,10.0,Variable,3.5,-,N/A,,Clear,0,2013-01-09 16:52:00
9:52 AM,50.0,28.0,43,30.16,10.0,ESE,16.1,-,N/A,,Clear,120,2013-01-09 17:52:00
10:52 AM,52.0,28.0,40,30.12,10.0,ESE,10.4,-,N/A,,Clear,120,2013-01-09 18:52:00
11:52 AM,55.0,27.0,34,30.06,10.0,ESE,13.8,-,N/A,,Clear,120,2013-01-09 19:52:00
12:52 PM,57.0,27.0,32,30.03,10.0,SE,10.4,-,N/A,,Clear,130,2013-01-09 20:52:00
1:52 PM,57.9,27.0,31,30.00,10.0,ESE,6.9,-,N/A,,Clear,120,2013-01-09 21:52:00
2:52 PM,57.9,26.1,30,30.00,10.0,South,4.6,-,N/A,,Clear,180,2013-01-09 22:52:00
3:52 PM,55.9,25.0,30,29.97,10.0,SE,8.1,-,N/A,,Clear,130,2013-01-09 23:52:00
4:52 PM,53.1,25.0,34,29.94,10.0,ESE,10.4,-,N/A,,Clear,110,2013-01-10 00:52:00
5:52 PM,51.1,24.1,35,29.92,10.0,SE,5.8,-,N/A,,Clear,140,2013-01-10 01:52:00
6:52 PM,46.0,25.0,44,29.91,10.0,NNE,5.8,-,N/A,,Clear,20,2013-01-10 02:52:00
7:52 PM,46.0,25.0,44,29.89,10.0,NW,6.9,-,N/A,,Clear,310,2013-01-10 03:52:00
8:52 PM,44.1,25.0,47,29.86,10.0,Variable,3.5,-,N/A,,Clear,0,2013-01-10 04:52:00
9:52 PM,55.0,25.0,31,29.81,10.0,SSW,18.4,25.3,N/A,,Clear,200,2013-01-10 05:52:00
10:07 PM,57.2,24.8,29,29.86,10.0,South,25.3,32.2,N/A,,Clear,190,2013-01-10 06:07:00
10:52 PM,57.9,24.1,27,29.77,10.0,SSW,24.2,31.1,N/A,,Clear,200,2013-01-10 06:52:00
11:52 PM,57.0,25.0,29,29.73,10.0,SSW,21.9,34.5,N/A,,Clear,200,2013-01-10 07:52:00